Regional Weather Roundup
Issued by NWS

Home | Current Version | Previous Version | Text Only | Print | Product List | Glossary On
Versions: 1 2 3 4 5 6 7 8 9 10 11 12 13 14 15 16 17 18 19 20 21 22 23 24 25 26 27 28 29 30 31 32 33 34 35 36 37 38 39 40 41 42 43 44 45 46 47 48 49 50
000
ASUS43 KMPX 281110
RWRMN
WEATHER ROUNDUP FOR MINNESOTA
NATIONAL WEATHER SERVICE TWIN CITIES/CHANHASSEN MN
600 AM CDT TUE JUL 28 2015


NOTE: "FAIR" INDICATES FEW OR NO CLOUDS BELOW 12,000 FEET WITH NO
SIGNIFICANT WEATHER AND/OR OBSTRUCTIONS TO VISIBILITY. N/A MEANS
CURRENT SKY AND/OR WEATHER CONDITIONS ARE NOT AVAILABLE.

MNZ060>063-068>070-281200-
   Twin Cities Metro

CITY           SKY/WX    TMP DP  RH WIND       PRES   REMARKS
TWIN CITIES    LGT RAIN  75  70  84 SE16G23   29.80S
ST PAUL        CLOUDY    74  70  87 S13       29.82R
CRYSTAL        LGT RAIN  75  70  84 SE16G24   29.76F
BLAINE         CLOUDY    75  72  88 S16G23    29.79S
LAKEVILLE      TSTM      72  70  94 S13G18    29.84R
EDEN PRAIRIE   LGT RAIN  73  71  93 SE18      29.78F FOG
SOUTH ST PAUL  CLOUDY    74  70  87 SE12G18   29.82R
LAKE ELMO      FAIR      73  70  88 S15       29.84R
$$
MNZ001>005-007-008-013>017-022>024-027-028-281200-
   Northwest Minnesota

CITY           SKY/WX    TMP DP  RH WIND       PRES   REMARKS
BEMIDJI        CLOUDY    73  68  84 S14G20    29.73F
HALLOCK        CLOUDY    75  72  88 SE18      29.57S
ROSEAU         CLOUDY    73  68  83 SE9       29.65F
WARROAD        CLOUDY    72  68  88 SE9       29.68F
THIEF RVR FALL CLOUDY    73  70  88 SE13G20   29.65S
CROOKSTON      TSTM      70  68  94 S23G32    29.61F
FOSSTON        TSTM      70  68  94 S16       29.70S
DETROIT LAKES  RAIN      70  68  94 S9        29.70F
MOORHEAD       LGT RAIN  70  68  94 E13       29.60F
PARK RAPIDS    RAIN      72  68  87 S10       29.73F FOG
MAHNOMEN       TSTM      71  69  95 S14G21    29.69F
$$
MNZ006-009>011-018-025>026-281200-
   North Central Minnesota

CITY           SKY/WX    TMP DP  RH WIND       PRES   REMARKS
BAUDETTE       CLOUDY    72  68  87 SE10      29.71F
FLAG ISLAND    CLOUDY    75  70  83 SE18      29.68F
INTL FALLS     MOCLDY    69  66  90 SE9       29.77S
WASKISH        CLOUDY    73  70  88 SE7       29.71F
BIG FORK       CLOUDY    72  66  83 S8        29.78F
LONGVILLE      CLOUDY    72  70  94 S9G16     29.77S
GRAND RAPIDS   CLOUDY    72  66  83 SE9       29.80F
CRANE LAKE     PTCLDY    63  61  94 S3        29.84S
ORR            MOCLDY    68  63  83 SE8       29.78F
COOK           MOCLDY    70  64  83 SE5       29.82F
WALKER         CLOUDY    72  68  87 S13       29.74F
$$
MNZ012-019>021-037-281200-
   Northeast Minnesota

CITY           SKY/WX    TMP DP  RH WIND       PRES   REMARKS
DULUTH         MOCLDY    69  65  86 SE10      29.85F
ELY            CLEAR     68  63  83 SE8       29.87S
HIBBING        CLOUDY    69  67  93 SE9       29.82F
EVELETH        CLOUDY    68  64  88 SE7       29.85F
DULUTH HARBOR  MOCLDY    72  68  88 NE7       29.84F
TWO HARBORS    MOCLDY    66  63  88 CALM      29.86S
SILVER BAY     PTCLDY    66  64  94 N3        29.88S
GRAND MARAIS     N/A     61  57  87 NE3       29.91R
G MARAIS ARPRT   N/A     64  57  77 CALM      29.96R
$$
MNZ029>031-032-039>041-046>048-054>057-064-281200-
   West Central Minnesota

CITY           SKY/WX    TMP DP  RH WIND       PRES   REMARKS
FERGUS FALLS   LGT RAIN  70  68  94 E20G25    29.58F
WHEATON        CLOUDY    66  64  94 SE13      29.66R
MORRIS         CLOUDY    70  70 100 SE10      29.65F
ALEXANDRIA     LGT RAIN  67  66  97 E13G25    29.65F
ELBOW LAKE     FAIR      68  67  96 SE6       29.68F
WADENA         CLOUDY    68  66  94 E6        29.71F
GLENWOOD       TSTM      66  66 100 E14       29.68F
APPLETON       LGT RAIN  70  66  88 S13       29.64F
BENSON         LGT RAIN  70  66  88 S7        29.66F
ORTONVILLE     CLOUDY    68  64  88 S6        29.67R
MADISON        LGT RAIN  70  66  88 S13       29.66F
WILLMAR        HVY RAIN  70  70 100 S5        29.74F
$$
MNZ033>034-036-042>043-049>051-058-059-281200-
   Central Minnesota

CITY           SKY/WX    TMP DP  RH WIND       PRES   REMARKS
ST CLOUD       TSTM      71  71 100 W6G20     29.81R VSB 1/2
SAUK CENTRE    RAIN      69  68  98 E5        29.74F
PAYNESVILLE    CLOUDY    67  67 100 E9        29.76F
AITKIN         CLOUDY    73  68  83 SE12      29.77F
PINE RIVER     RAIN      72  70  94 S7        29.81R
BRAINERD       TSTM      72  70  93 S8        29.79R FOG
STAPLES        TSTM      70  68  94 CALM      29.75F
LONG PRAIRIE   MOCLDY    68  66  94 E8        29.75F
LITTLE FALLS   HVY RAIN  68  66  94 SE10      29.78R VSB 1
LITCHFIELD     LGT RAIN  72  72 100 S5        29.77F
BUFFALO        TSTM      73  69  87 SE14G22   29.78R
MAPLE LAKE     CLOUDY    73  72  94 S8G18     29.81R
$$
MNZ037-044-045-052-053-281200-
   East Central Minnesota

CITY           SKY/WX    TMP DP  RH WIND       PRES   REMARKS
PRINCETON      CLOUDY    75  70  83 SE10G18   29.78R THUNDER
MORA           CLOUDY    70  68  94 SE6       29.79F
CAMBRIDGE      CLOUDY    75  66  73 SE10G16   29.75F
RUSH CITY      CLOUDY    72  69  89 SE12      29.79F
MOOSE LAKE     CLOUDY    70  68  94 CALM      29.79F
HINCKLEY       FAIR      72  70  94 E6        29.79F
CLOQUET        MOCLDY    70  66  88 E3        29.84F
MCGREGOR       CLOUDY    72  70  94 SE8       29.79F
$$
MNZ071>073-080-081-089-090-097-098-281200-
   Southwest Minnesota

CITY           SKY/WX    TMP DP  RH WIND       PRES   REMARKS
MONTEVIDEO     LGT RAIN  70  70 100 S12       29.71F
GRANITE FALLS  TSTM      69  68  96 S12G17    29.76F
CANBY          LGT RAIN  68  67  94 SE18      29.67F
MARSHALL       CLOUDY    68  64  88 SE13      29.75F
REDWOOD FALLS  TSTM      70  67  90 SW14      29.80S
OLIVIA         RAIN      68  64  88 SW14G21   29.79R
PIPESTONE      LGT RAIN  66  64  94 SE12      29.73F
WINDOM         CLOUDY    66  64  94 NW9       29.88F
WORTHINGTON    CLOUDY    66  64  94 NE14      29.83F
JACKSON        RAIN      70  66  88 NW14G23   29.91R
TRACY          CLOUDY    68  66  94 S9        29.82F
SLAYTON        TSTM      66  65  99 E8        29.82F
$$
MNZ065>067-074>077-082>085-091>093-281200-
   South Central Minnesota

CITY           SKY/WX    TMP DP  RH WIND       PRES   REMARKS
MANKATO        CLOUDY    73  66  78 S12G20    29.82S
NEW ULM        TSTM      72  70  94 SW10      29.85R
ST JAMES       TSTM      72  66  83 W12G25    29.90R
FAIRMONT       CLOUDY    72  64  78 SW9       29.88R
GLENCOE        TSTM      73  71  93 SW14G22   29.85R
FARIBAULT      CLOUDY    72  70  94 SE13G20   29.85F
OWATONNA       CLOUDY    72  68  88 SE15      29.84F
WASECA         CLOUDY    72  68  88 SE10      29.86R
ALBERT LEA     CLOUDY    72  70  94 SE17      29.86S
$$
MNZ078>079-086>088-094>096-281200-
   Southeast Minnesota

CITY           SKY/WX    TMP DP  RH WIND       PRES   REMARKS
ROCHESTER      CLOUDY    72  70  93 S15       29.93R FOG
RED WING       CLOUDY    75  70  83 S10       29.86R
STANTON        TSTM      74  69  85 S9G18     29.83S
DODGE CENTER   TSTM      72  70  94 S14       29.88F
WINONA         PTCLDY    73  70  88 SE3       29.91R
AUSTIN         TSTM      72  70  94 S10       29.89F
PRESTON        MOCLDY    70  68  92 S10       29.94R FOG
$$
ABBREVIATIONS USED IN REMARKS
   TC - TEMPERATURES IN CELSIUS
  WCI - WIND CHILL INDEX
   HX - HEAT INDEX
  VSB - VISIBILITY
$$


USA.gov is the U.S. government's official web portal to all federal, state and local government web resources and services.